Location: Góry Miechowskie
(50.3599°N, 20.1803°E)
Time: 02:54:12
(UTC+00:00)

SR - Pass Details

Date: 13 September 2024
Orbit: 578 x 855 km, 66.7° (Epoch: 04 October)

Event Time Altitude Azimuth Distance (km) Brightness Sun altitude
Rises 18:39:35 0° 326° (NW) 2,862 ? -16.5°
Reaches altitude 10° 18:42:21 10° 344° (NNW) 1,991 ? -16.9°
Maximum altitude 18:45:37 19° 31° (NNE) 1,510 ? -17.4°
Enters shadow 18:47:33 16° 62° (ENE) 1,730 ? -17.6°
